STARLINK-37126

Last updated on Sun Apr 12 2026 00:02:09 GMT+0000 (Coordinated Universal Time)

1 68520U 26068N 26101.50002315 .00069176 00000+0 35183-3 0 9990 2 68520 53.1598 344.7932 0000428 99.2501 73.4495 15.80834966 3089
UTC large
Height (km)
Speed (km/s)
/
Latitude / Longitude
Inclination (degrees)
Orbital Period (minutes)
Azimuth
Elevation
Range (km)
Doppler Factor

Next 0 passes for location: London (51.5072 / 0.1276)

Sorry there are no passes over London.
STARLINK-37126